EW2795 Weather Reports


Display with metric or nautical units.
time (UTC)temp
F
wind
direction
speed
MPH
gust
MPH
rain 1hr
in
rain 24hr
in
rain mn
in
humidity
%
barometer
mb
20260905224505 79 40 2.0 0.0 0.00 0.00 0.31 81 1009.6
20260905223057 79 51 1.0 0.0 0.00 0.00 0.31 81 1009.5
20260905221544 81 41 2.0 0.0 0.00 0.00 0.31 78 1009.4
20260905220040 82 48 1.0 0.0 0.00 0.00 0.31 73 1009.3
20260905214528 81 280 1.0 0.0 0.00 0.00 0.31 77 1009.3
20260905213024 81 347 1.0 0.0 0.00 0.00 0.31 76 1009.4
20260905211514 82 40 1.0 0.0 0.00 0.00 0.31 72 1009.3
20260905210004 82 294 0.0 0.0 0.00 0.00 0.31 75 1009.4
20260905204556 82 296 0.0 0.0 0.00 0.00 0.31 74 1009.4
20260905203050 82 281 1.0 0.0 0.00 0.00 0.31 73 1009.6
20260905201538 82 24 1.0 0.0 0.00 0.00 0.31 71 1009.6
20260905200044 83 268 2.0 0.0 0.00 0.00 0.31 69 1009.7
20260905194518 84 12 1.0 0.0 0.00 0.00 0.31 69 1009.7
20260905193022 84 322 1.0 0.0 0.00 0.00 0.31 73 1009.9
20260905191506 82 304 2.0 0.0 0.00 0.00 0.31 69 1010.2
20260905184555 83 32 0.0 0.0 0.00 0.00 0.31 67 1010.4
20260905183045 83 24 2.0 0.0 0.00 0.00 0.31 66 1010.5
20260905181536 83 226 1.0 0.0 0.00 0.00 0.31 66 1010.4
20260905180023 82 265 2.0 0.0 0.00 0.00 0.31 70 1010.5
20260905174512 82 26 0.0 0.0 0.00 0.00 0.31 72 1010.4
20260905173054 82 38 1.0 0.0 0.00 0.00 0.31 69 1010.5
20260905171544 82 40 2.0 0.0 0.00 0.00 0.31 73 1010.8
20260905170043 82 245 2.0 0.0 0.00 0.00 0.31 70 1010.9
20260905164533 81 53 0.0 0.0 0.00 0.00 0.31 72 1010.8
20260905163013 81 69 2.0 0.0 0.00 0.00 0.31 77 1010.8
20260905161556 81 57 1.0 0.0 0.00 0.00 0.31 74 1010.8
20260905160051 80 333 0.0 0.0 0.00 0.00 0.31 72 1011.0
20260905154535 80 311 0.0 0.0 0.00 0.00 0.31 77 1010.8
20260905153045 79 323 1.0 0.0 0.00 0.00 0.31 78 1010.9
20260905151514 77 24 1.0 0.0 0.00 0.00 0.31 81 1010.9
20260905150056 74 32 1.0 0.0 0.00 0.00 0.31 88 1010.9
20260905144549 72 32 2.0 0.0 0.00 0.00 0.31 93 1011.0
20260905143038 71 321 0.0 0.0 0.00 0.00 0.31 97 1011.0
20260905141523 70 320 0.0 0.0 0.00 0.00 0.31 97 1011.0
20260905140108 70 319 0.0 0.0 0.00 0.00 0.31 97 1011.0
20260905140010 70 319 0.0 0.0 0.00 0.00 0.31 97 1011.0
20260905134545 69 321 0.0 0.0 0.00 0.00 0.31 97 1010.8
20260905133039 69 304 0.0 0.0 0.00 0.00 0.31 97 1011.0
20260905131531 69 304 0.0 0.0 0.00 0.00 0.31 97 1011.1
20260905130018 68 304 0.0 0.0 0.00 0.00 0.31 97 1011.3
20260905124553 68 304 0.0 0.0 0.00 0.00 0.31 97 1011.4
20260905123051 68 304 0.0 0.0 0.00 0.00 0.31 97 1011.8
20260905121550 68 304 0.0 0.0 0.00 0.00 0.31 97 1011.9
20260905120031 68 304 1.0 0.0 0.00 0.00 0.31 97 1012.0
20260905114519 68 288 2.0 0.0 0.00 0.00 0.31 97 1011.7
20260905113058 68 217 3.0 0.0 0.00 0.00 0.31 97 1010.1
20260905113002 68 218 3.0 0.0 0.00 0.00 0.31 97 1010.1
20260905111606 68 176 5.0 0.0 0.00 0.00 0.31 97 1009.4
20260905110031 68 169 2.0 0.0 0.00 0.00 0.30 97 1010.9
20260905104522 68 209 2.0 0.0 0.00 0.00 0.28 97 1012.0
20260905103026 68 227 1.0 0.0 0.00 0.00 0.24 96 1012.2
20260905101507 68 229 3.0 0.0 0.00 0.00 0.20 96 1011.6
20260905100055 68 55 1.0 0.0 0.00 0.00 0.17 96 1011.2
20260905094547 68 233 2.0 0.0 0.00 0.00 0.15 96 1011.1
20260905093036 68 254 4.0 0.0 0.00 0.00 0.13 96 1011.7
20260905091535 68 174 4.0 0.0 0.00 0.00 0.09 96 1013.0
20260905090021 70 176 4.0 0.0 0.00 0.00 0.07 96 1012.0
20260905084516 71 244 3.0 0.0 0.00 0.00 0.06 97 1010.9
20260905083005 71 264 1.0 0.0 0.00 0.00 0.00 97 1010.8
20260905081559 72 242 2.0 0.0 0.00 0.00 0.00 97 1010.9
20260905081502 72 240 2.0 0.0 0.00 0.00 0.00 97 1010.9
20260905080054 72 227 2.0 0.0 0.00 0.00 0.00 97 1010.8
20260905080003 72 227 2.0 0.0 0.00 0.00 0.00 97 1010.8
20260905074556 72 125 0.0 0.0 0.00 0.00 0.00 97 1009.8
20260905073054 72 125 0.0 0.0 0.00 0.00 0.00 97 1009.6
20260905071540 71 128 0.0 0.0 0.00 0.00 0.00 97 1010.2
20260905070022 71 126 0.0 0.0 0.00 0.00 0.00 97 1010.2
20260905064508 70 126 0.0 0.0 0.00 0.00 0.00 97 1010.4
20260905063101 70 126 0.0 0.0 0.00 0.00 0.00 97 1010.5
20260905063003 70 127 0.0 0.0 0.00 0.00 0.00 97 1010.5
20260905061559 70 128 0.0 0.0 0.00 0.00 0.00 97 1010.8
20260905060041 70 128 0.0 0.0 0.00 0.00 0.00 97 1011.2
20260905054542 70 128 0.0 0.0 0.00 0.00 0.00 97 1011.3
20260905053019 70 128 0.0 0.0 0.00 0.00 0.00 96 1011.4
20260905051519 71 128 0.0 0.0 0.00 0.00 0.00 97 1011.5
20260905050017 71 128 0.0 0.0 0.00 0.00 0.00 96 1011.7
20260905044557 71 128 0.0 0.0 0.00 0.00 0.00 96 1011.4
20260905043050 71 128 0.0 0.0 0.00 0.00 0.00 97 1011.4
20260905041545 71 128 0.0 0.0 0.00 0.00 0.00 96 1011.5
20260905040026 71 128 0.0 0.0 0.00 0.00 0.00 97 1011.5
20260905034510 71 128 0.0 0.0 0.00 0.00 0.90 96 1011.5
20260905033105 71 128 0.0 0.0 0.00 0.00 0.90 95 1011.4
20260905033002 71 128 0.0 0.0 0.00 0.00 0.90 95 1011.4
20260905031553 71 128 0.0 0.0 0.00 0.00 0.90 96 1011.5
20260905030052 71 128 0.0 0.0 0.00 0.00 0.90 96 1011.5
20260905024518 71 128 0.0 0.0 0.00 0.00 0.90 95 1011.6
20260905023017 72 128 0.0 0.0 0.00 0.00 0.90 95 1011.8
20260905021600 72 128 0.0 0.0 0.00 0.00 0.90 95 1011.8
20260905020049 72 128 0.0 0.0 0.00 0.00 0.90 95 1011.7
20260905014546 72 128 0.0 0.0 0.00 0.00 0.90 95 1011.8
20260905013046 73 128 0.0 0.0 0.00 0.00 0.90 94 1011.7
20260905011536 73 128 0.0 0.0 0.00 0.00 0.90 94 1011.6
20260905010036 73 128 0.0 0.0 0.00 0.00 0.90 94 1011.4
20260905004536 74 128 0.0 0.0 0.00 0.00 0.90 93 1011.6
20260905003036 75 128 0.0 0.0 0.00 0.00 0.90 93 1011.4
20260905001530 75 128 0.0 0.0 0.00 0.00 0.90 92 1011.5
20260905000020 76 128 0.0 0.0 0.00 0.00 0.90 90 1011.3
20260904234514 78 128 0.0 0.0 0.00 0.00 0.90 87 1011.3
20260904233057 79 128 0.0 0.0 0.00 0.00 0.90 85 1011.3
20260904231556 80 128 0.0 0.0 0.00 0.00 0.90 84 1011.3
20260904230053 80 128 1.0 0.0 0.00 0.00 0.90 83 1011.4
20260904224559 80 113 1.0 0.0 0.00 0.00 0.90 82 1011.4